Regional Weather Roundup
Issued by NWS

Home | Current Version | Previous Version | Graphics & Text | Print | Product List | Glossary On
Versions: 1 2 3 4 5 6 7 8 9 10 11 12 13 14 15 16 17 18 19 20 21 22 23 24 25 26 27 28 29 30 31 32 33 34 35 36 37 38 39 40 41 42 43 44 45 46 47 48 49 50
000
ASUS43 KLOT 252301
RWRIL

ILLINOIS REGIONAL WEATHER ROUNDUP
NATIONAL WEATHER SERVICE CHICAGO/ROMEOVILLE IL
600 PM CDT MON MAY 25 2015

NOTE: "FAIR" INDICATES FEW OR NO CLOUDS BELOW 12,000 FEET WITH NO
SIGNIFICANT WEATHER AND/OR OBSTRUCTIONS TO VISIBILITY.

* THESE STATIONS ARE NOT UNDER NWS QUALITY CONTROL. THEY ALSO MAY NOT
  REPORT WEATHER SUCH AS PRECIPITATION OR FOG.

ILZ001-002-007-009-015-016-024-260000-
NORTHWEST ILLINOIS

CITY           SKY/WX    TMP DP  RH WIND       PRES   REMARKS
MOLINE         MOSUNNY   79  60  52 S15G24    29.88F HX  80
STERLING*      MOSUNNY   79  63  57 SW8       29.91S HX  80
$$

ILZ003-004-008-010-011-017-018-260000-
NORTH CENTRAL ILLINOIS

CITY           SKY/WX    TMP DP  RH WIND       PRES   REMARKS
ROCKFORD       MOSUNNY   80  63  55 SW17G23   29.91R HX  81
$$

ILZ005-006-012>014-019>023-260000-
NORTHEAST ILLINOIS

CITY           SKY/WX    TMP DP  RH WIND       PRES   REMARKS
CHICAGO-OHARE  PTSUNNY   77  60  55 SW14G24   29.91F
CHICAGO-MIDWAY PTSUNNY   81  60  48 SW17G23   29.92F HX  82
AURORA         MOSUNNY   79  60  52 SW16G24   29.93S HX  80
WAUKEGAN       MOSUNNY   77  59  53 S21G31    29.89S
DUPAGE AIRPORT MOSUNNY   78  61  55 SW16G23   29.92S HX  80
WHEELING       MOSUNNY   78  59  51 SW16G24   29.92S
NORTHERLY ISL    N/A     78  56  46 SW8         N/A
$$

LMZ740>746-260000-
SOUTHERN LAKE MICHIGAN

STATION/POSITION SKY/WX   TEMP    WIND        PRES    VSBY  WAVE
                          AIR SEA DIR/SP/G                  HT/PER
                          (F)     (DEG/KT/KT) (MB)    (MI)  (FT/S)
SOUTHERN BUOY              46 38  200/ 12/ 12 1013.0F         2/ 5
HARRISON CRIB              75     210/ 22/ 27   N/A
BURNHAM HARBOR             78     240/ 12/ 17   N/A
CALUMET HARBOR             79     220/ 11/ 17   N/A
BURNS HARBOR               76     220/ 16/ 23 1014.2S
MICHIGAN CITY              70     220/ 15/ 18   N/A
MICHIGAN CITY 6N           61 52  250/  8/ 10   N/A           2/ 4
ST. JOSEPH                 62 55  260/ 10/ 12   N/A           3/ 4
$$

ILZ025>027-034>036-040-047-049-050-058-095>099-260000-
WEST-CENTRAL ILLINOIS

CITY           SKY/WX    TMP DP  RH WIND       PRES   REMARKS
QUINCY         MOSUNNY   80  62  54 S12       29.89F HX  81
$$

ILZ028>032-037-038-041>044-048-051>054-059>061-260000-
CENTRAL ILLINOIS

CITY           SKY/WX    TMP DP  RH WIND       PRES   REMARKS
DECATUR        PTSUNNY   80  59  48 S14       29.96F HX  81
PEORIA         SUNNY     83  57  41 SW15      29.93S HX  82
SPRINGFIELD    MOSUNNY   83  63  50 S16       29.94F HX  84
TAYLORVILLE    NOT AVBL
$$

ILZ033-039-045-046-055>057-062-063-260000-
EAST-CENTRAL ILLINOIS

CITY           SKY/WX    TMP DP  RH WIND       PRES   REMARKS
CHAMPAIGN      PTSUNNY   81  62  52 S21       29.97F HX  82
MATTOON        CLOUDY    77  65  66 S18G24    29.99F
$$

ILZ079-100>102-260000-
SOUTHWEST ILLINOIS

CITY           SKY/WX    TMP DP  RH WIND       PRES   REMARKS
BELLEVILLE     MOSUNNY   81  70  70 S16       29.92F HX  84
CAHOKIA*       MOSUNNY   82  67  60 SE16G23   29.92F HX  84
$$

ILZ064>066-069>071-074>076-080>082-084>086-088>090-092>094-260000-
SOUTH-CENTRAL ILLINOIS

CITY           SKY/WX    TMP DP  RH WIND       PRES   REMARKS
CARBONDALE     PTSUNNY   76  67  73 S13       29.98F
MARION         PTSUNNY   79  70  73 S17       30.00F HX  81
MT. VERNON     CLOUDY    77  66  69 S8        30.00F
$$

ILZ067-068-072-073-078-083-087-091-260000-
SOUTHEAST ILLINOIS

CITY           SKY/WX    TMP DP  RH WIND       PRES   REMARKS
LAWRENCEVILLE  CLOUDY    77  66  68 S14       30.04S
$$

ABBREVIATIONS USED IN REMARKS
   TC - TEMPERATURE IN CELSIUS
  WCI - WIND CHILL INDEX
   HX - HEAT INDEX
  VSB - VISIBILITY
$$




USA.gov is the U.S. government's official web portal to all federal, state and local government web resources and services.